Location: Lecco
(45.8566°N, 9.3977°E)
Time: 08:48:25
(UTC+02:00)

S-56A Canister/Altair - Pass Details

Date: 23 July 2019
Orbit: 633 x 2499 km, 38.9° (Epoch: 23 August)

Event Time Altitude Azimuth Distance (km) Brightness Sun altitude
Rises 12:52:06 0° 281° (W) 5,918 11.9 63.1°
Reaches altitude 10° 12:56:03 10° 275° (W) 5,040 11.7 63.4°
Maximum altitude 13:09:32 43° 212° (SSW) 3,175 11.8 63.9°
Drops below altitude 10° 13:22:11 10° 147° (SSE) 4,728 12.1 64.2°
Sets 13:25:48 0° 141° (SE) 5,532 12.2 64.2°
